Weather History for Pawtucket, RI

Change the Weather History Date:

Sunday, December 9, 2012

  Actual Average Record
Temperature  
Mean Temperature 42 °F -  
Max Temperature 46 °F 40 °F 53 °F (2008)
Min Temperature 37 °F 26 °F 8 °F (2002)
Degree Days  
Heating Degree Days 24    
Moisture  
Dew Point 34 °F    
Average Humidity 76    
Maximum Humidity 93    
Minimum Humidity 53    
Precipitation  
Precipitation 0.11 in - - ()
Sea Level Pressure  
Sea Level Pressure 30.17 in    
Wind  
Wind Speed 7 mph (NNE)    
Max Wind Speed 12 mph    
Max Gust Speed 16 mph    
Visibility 9 miles    
Events      
Averages and records for this station are not official NWS values.
T = Trace of Precipitation, MM = Missing Value Source: NWS Daily Summary

Daily Weather History Graph

Daily Weather History Graph

Search for Another Location

Airport:

Trip Planner

Search our weather history database for the weather conditions in past years. The results will help you decide how hot, cold, wet, or windy it might be!

Date:

Astronomy

Dec. 09, 2012 Rise Set
Actual Time 7:02 AM EST 4:14 PM EST
Civil Twilight 6:30 AM EST 4:46 PM EST
Nautical Twilight 5:55 AM EST 5:21 PM EST
Astronomical Twilight 5:21 AM EST 5:55 PM EST
Moon 2:28 AM EST (12/9) 1:22 PM EST (12/9)
Length of Visible Light 10h 15m
Length of Day
9h 12m
Waning Crescent, 19% of the Moon is Illuminated
Dec 9
Waning Crescent
Dec 13
New
Dec 20
First Quarter
Dec 28
Full
Jan 4
Last Quarter

Hourly Weather History & Observations

Time (EST) Temp. Windchill Dew Point Humidity Pressure Visibility Wind Dir Wind Speed Gust Speed Precip Events Conditions
12:15 AM 46.4 °F 43.5 °F 42.8 °F 87% 29.96 in 5.0 mi West 5.8 mph - N/A   Overcast
1:15 AM 44.6 °F 42.2 °F 41.0 °F 87% 29.98 in 3.0 mi WSW 4.6 mph - N/A   Mostly Cloudy
1:35 AM 44.6 °F 42.2 °F 42.8 °F 93% 29.99 in 2.5 mi WSW 4.6 mph - N/A   Overcast
2:15 AM 44.6 °F 41.4 °F 42.8 °F 93% 30.02 in 3.0 mi West 5.8 mph - N/A   Overcast
3:15 AM 44.6 °F 42.2 °F 41.0 °F 87% 30.04 in 2.5 mi West 4.6 mph - N/A   Mostly Cloudy
3:35 AM 42.8 °F 39.3 °F 41.0 °F 93% 30.04 in 2.5 mi West 5.8 mph - N/A   Scattered Clouds
3:55 AM 44.6 °F 40.2 °F 41.0 °F 87% 30.05 in 10.0 mi WNW 8.1 mph - N/A   Mostly Cloudy
4:15 AM 44.6 °F 39.7 °F 39.2 °F 81% 30.06 in 10.0 mi WNW 9.2 mph - N/A   Scattered Clouds
4:35 AM 44.6 °F 40.2 °F 39.2 °F 81% 30.06 in 10.0 mi WNW 8.1 mph - N/A   Clear
4:55 AM 42.8 °F 39.3 °F 39.2 °F 87% 30.07 in 10.0 mi NW 5.8 mph - N/A   Clear
5:15 AM 42.8 °F 38.6 °F 37.4 °F 81% 30.08 in 10.0 mi NW 6.9 mph - N/A   Clear
5:35 AM 42.8 °F 38.0 °F 37.4 °F 81% 30.09 in 10.0 mi NW 8.1 mph - N/A   Clear
5:55 AM 42.8 °F 37.5 °F 37.4 °F 81% 30.11 in 10.0 mi NW 9.2 mph - N/A   Clear
6:15 AM 42.8 °F 37.0 °F 37.4 °F 81% 30.12 in 10.0 mi NW 10.4 mph - N/A   Clear
6:35 AM 42.8 °F 37.5 °F 35.6 °F 76% 30.14 in 10.0 mi NW 9.2 mph - N/A   Clear
7:15 AM 41.0 °F 37.1 °F 35.6 °F 81% 30.16 in 10.0 mi NW 5.8 mph - N/A   Clear
7:35 AM 41.0 °F 36.4 °F 35.6 °F 81% 30.17 in 10.0 mi NW 6.9 mph - N/A   Clear
8:15 AM 42.8 °F 37.5 °F 37.4 °F 81% 30.19 in 10.0 mi NW 9.2 mph - N/A   Clear
8:35 AM 44.6 °F 40.2 °F 37.4 °F 76% 30.20 in 10.0 mi NW 8.1 mph - N/A   Clear
8:55 AM 44.6 °F 40.2 °F 35.6 °F 71% 30.22 in 10.0 mi NNW 8.1 mph - N/A   Clear
9:15 AM 46.4 °F 41.5 °F 37.4 °F 71% 30.22 in 10.0 mi North 10.4 mph - N/A   Clear
9:55 AM 46.4 °F 41.5 °F 35.6 °F 66% 30.24 in 10.0 mi NNE 10.4 mph 16.1 mph N/A   Clear
11:15 AM 46.4 °F 41.1 °F 33.8 °F 62% 30.23 in 10.0 mi North 11.5 mph - N/A   Clear
11:55 AM 46.4 °F 42.4 °F 32.0 °F 57% 30.22 in 10.0 mi North 8.1 mph - N/A   Clear
12:15 PM 44.6 °F 39.2 °F 30.2 °F 57% 30.22 in 10.0 mi North 10.4 mph - N/A   Clear
12:55 PM 44.6 °F 40.7 °F 30.2 °F 57% 30.21 in 10.0 mi NE 6.9 mph - N/A   Clear
1:35 PM 44.6 °F 40.7 °F 28.4 °F 53% 30.22 in 10.0 mi NNE 6.9 mph - N/A   Clear
2:35 PM 42.8 °F 39.3 °F 26.6 °F 53% 30.23 in 10.0 mi NE 5.8 mph - N/A   Clear
3:15 PM 42.8 °F 38.0 °F 26.6 °F 53% 30.24 in 10.0 mi NE 8.1 mph - N/A   Clear
3:35 PM 42.8 °F 38.0 °F 26.6 °F 53% 30.24 in 10.0 mi NNE 8.1 mph - N/A   Clear
3:55 PM 41.0 °F - 26.6 °F 57% 30.24 in 10.0 mi Calm Calm - N/A   Clear
4:15 PM 41.0 °F 38.0 °F 26.6 °F 57% 30.25 in 10.0 mi NE 4.6 mph - N/A   Mostly Cloudy
4:35 PM 41.0 °F 37.1 °F 26.6 °F 57% 30.24 in 10.0 mi ENE 5.8 mph - N/A   Mostly Cloudy
4:55 PM 41.0 °F 38.0 °F 26.6 °F 57% 30.24 in 10.0 mi ENE 4.6 mph - N/A   Scattered Clouds
5:15 PM 39.2 °F 35.9 °F 28.4 °F 65% 30.24 in 10.0 mi ENE 4.6 mph - N/A   Mostly Cloudy
5:35 PM 41.0 °F 38.0 °F 28.4 °F 61% 30.24 in 10.0 mi East 4.6 mph - N/A   Overcast
6:35 PM 39.2 °F 37.0 °F 28.4 °F 65% 30.27 in 10.0 mi ENE 3.5 mph - N/A   Mostly Cloudy
6:55 PM 39.2 °F 37.0 °F 30.2 °F 70% 30.27 in 10.0 mi NE 3.5 mph - N/A   Overcast
7:15 PM 39.2 °F 35.0 °F 30.2 °F 70% 30.26 in 10.0 mi NE 5.8 mph - N/A   Mostly Cloudy
7:35 PM 37.4 °F 32.8 °F 32.0 °F 81% 30.24 in 9.0 mi ENE 5.8 mph - N/A   Mostly Cloudy
7:55 PM 37.4 °F 34.9 °F 32.0 °F 81% 30.24 in 10.0 mi NE 3.5 mph - 0.03 in   Mostly Cloudy
8:35 PM 37.4 °F 32.8 °F 33.8 °F 87% 30.23 in 10.0 mi ENE 5.8 mph - 0.01 in   Overcast
8:55 PM 37.4 °F 33.8 °F 33.8 °F 87% 30.22 in 10.0 mi ENE 4.6 mph - 0.02 in   Overcast
9:15 PM 37.4 °F 32.1 °F 33.8 °F 87% 30.21 in 10.0 mi East 6.9 mph - 0.01 in   Overcast
9:35 PM 37.4 °F 32.8 °F 35.6 °F 93% 30.20 in 7.0 mi East 5.8 mph - 0.02 in   Overcast
9:55 PM 39.2 °F 34.2 °F 35.6 °F 87% 30.19 in 5.0 mi East 6.9 mph - 0.02 in   Overcast
10:15 PM 39.2 °F 34.2 °F 35.6 °F 87% 30.18 in 8.0 mi East 6.9 mph - 0.01 in   Overcast
10:35 PM 39.2 °F 33.0 °F 35.6 °F 87% 30.17 in 5.0 mi East 9.2 mph - 0.01 in   Overcast
11:15 PM 39.2 °F 33.6 °F 37.4 °F 93% 30.14 in 5.0 mi East 8.1 mph - 0.02 in   Overcast
11:35 PM 39.2 °F 33.6 °F 37.4 °F 93% 30.14 in 5.0 mi East 8.1 mph - 0.02 in   Overcast
11:55 PM 39.2 °F 32.5 °F 37.4 °F 93% 30.11 in 7.0 mi East 10.4 mph - 0.03 in   Overcast